Regional Weather Roundup
Issued by NWS Charleston, SC

Current Version | Previous Version | Graphics & Text | Print | Product List | Glossary On
Versions: 1 2 3 4 5 6 7 8 9 10 11 12 13 14 15 16 17 18 19 20 21 22 23 24 25 26 27 28 29 30 31 32 33 34 35 36 37 38 39 40 41 42 43 44 45 46 47 48 49 50
000
ASUS42 KCHS 011425
RWRCHS

REGIONAL WEATHER ROUNDUP
NATIONAL WEATHER SERVICE CHARLESTON SC
1000 AM EDT WED OCT 01 2014

NOTE: "FAIR" INDICATES FEW OR NO CLOUDS BELOW 12,000 FEET WITH NO
SIGNIFICANT WEATHER AND/OR OBSTRUCTIONS TO VISIBILITY.

NOT ALL STATIONS ARE QUALITY CONTROLLED BY THE NATIONAL
WEATHER SERVICE. USE DATA WITH CAUTION...ESPECIALLY
DEWPOINT OBSERVATIONS.

SCZ027-030-031-034>040-042>050-011500-
...SOUTH CAROLINA...

CITY           SKY/WX    TMP DP  RH WIND       PRES   REMARKS
N CHARLESTON   MOSUNNY   77  66  68 NE5       29.99R
WATERFRONT PRK   N/A     73 N/A N/A N7          N/A
FORT JOHNSON   NOT AVBL
MOUNT PLEASANT FAIR      75  68  78 CALM      29.99R
JOHNS ISLAND   SUNNY     75  75 100 CALM      30.00R
PINOPOLIS        N/A     75  66  73 NE3       29.93R
MONCKS CORNER  FAIR      75  70  83 CALM      30.00R
SUMMERVILLE    FAIR      72  70  94 CALM      30.00S
BEAUFORT MCAS  SUNNY     76  66  71 NW6       29.99R
BEAUFORT ARPT  FAIR      75  70  83 N3        29.99R
HILTON HEAD IS SUNNY     75  72  88 N7        30.01R
GEORGETOWN     NOT AVBL
WALTERBORO     SUNNY     77  64  65 N3        30.01R
ORANGEBURG     SUNNY     75  65  70 N3        30.00R
BARNWELL       FAIR      75  66  73 N3        30.01R
AIKEN          FAIR      77  66  69 N3        30.05R
MANNING        FAIR      73  72  94 CALM      30.01R
KINGSTREE      NOT AVBL
COLUMBIA       MOSUNNY   73  64  73 CALM      30.00R
SUMTER         SUNNY     71  63  74 CALM      29.99R
FLORENCE       SUNNY     69  64  84 SE5       30.01R
MYRTLE BEACH   SUNNY     72  64  78 N7        29.99R
N MYRTLE BEACH SUNNY     72  64  76 NE6       29.99R

$$

GAZ063-065-086>088-099>101-113>116-118-119-134-136>141-150-011500-
...GEORGIA...

CITY           SKY/WX    TMP DP  RH WIND       PRES   REMARKS
SAVANNAH ARPT  NOT AVBL
HUNTER AAF     SUNNY     76  69  78 NE6       29.97R
FORT STEWART   SUNNY     76  67  75 NW3       29.98R
STATESBORO     NOT AVBL
SYLVANIA       SUNNY     77  72  83 CALM      30.02R
CLAXTON        FAIR      79  70  73 CALM      30.00S
THOMSON        SUNNY     75  72  90 CALM      30.06R
AUGUSTA-BUSH   SUNNY     71  65  81 N5        30.00R
AUGUSTA-DANIEL SUNNY     74  65  73 N7        30.02R
SWAINSBORO     FAIR      77  72  83 CALM      30.01S
VIDALIA        SUNNY     77  70  78 CALM      30.01R
ALMA           SUNNY     76  67  73 N6        29.99R
WAYCROSS       CLOUDY    75  72  91 NE3       30.00R
JESUP          FAIR      81  70  69 CALM      30.00R
BRUNSWICK      CLOUDY    73  70  88 N3        30.00R
SAINT SIMONS   CLOUDY    72  67  84 N6        29.98R

$$

SCZ027-028-034-036>038-045-046-048>050-GAZ119-141-011500-
...LAKE AND SUPPLEMENTAL COASTAL OBSERVATIONS...

STATION/POSITION TIME  TEMP    WIND        PRES    WAVE   SWELL
                       AIR SEA DIR/SP/G            HT/PER HT/PER/DIR
                 (UTC) (F)     (DEG/KT/KT) (MB)    (FT/S) (FT/S/D)
UPR LAKE MARION  NOT AVBL
WINYAH BAY       1400   73      70/  3     1015.0S
LAKE MURRAY      1300   70     280/  2/  3 1015.2R
ACE BASIN NERRS  1400   73      20/  2     1015.0S
FORT PULASKI     1400   74     360/  3/  4 1015.7R
SAPELO ISLAND    NOT AVBL

$$

ANZ835-935-AMZ111-154-330-350-352-354-374-450-454-472-011500-
...C-MAN AND BUOY OBSERVATIONS...

STATION/POSITION TIME  TEMP    WIND        PRES    WAVE   SWELL
                       AIR SEA DIR/SP/G            HT/PER HT/PER/DIR
                 (UTC) (F)     (DEG/KT/KT) (MB)    (FT/S) (FT/S/D)
FOLLY BEACH CMAN 1400   73      10/  5/  6 1015.8R
BUOY 41004       1400   77 81   20/ 10/ 14 1014.3R   3/ 5   2/ 5
BUOY 41008       1400   75 79   20/  8/ 10 1014.9R   2/ 6   2/ 80/ 6
5E ST. MARYS GA  1400      79                N/A     3/ 7
FRYING PAN BUOY  NOT AVBL
BUOY 41025       1400   72     350/ 17/ 19 1013.5R   4/ 7   2/ 60/ 7
CAPE LOOKOUT NC  1400   72      20/ 12/ 15 1014.4R
BUOY 41002       1336   79 80   10/ 12/ 12 1012.0R   3/13   2/ 80/13
BUOY 41010       1400   82 85   20/  6/  8 1013.7R   4/ 8   3/ 40/ 8
BUOY 41012       NOT AVBL
ST AUGUSTINE FL  1400   79      50/  8/ 10 1014.7R
CAPERS NEARSHORE 1300   71      20/  8/  8   N/A
FRIPP NEARSHORE  NOT AVBL


$$


USA.gov is the U.S. government's official web portal to all federal, state and local government web resources and services.